Weather History for Surat Thani, Thailand

Change the Weather History Date:

Sunday, December 16, 2012

  Actual Average Record
Temperature  
Mean Temperature 82 °F -  
Max Temperature 88 °F 86 °F - ()
Min Temperature 75 °F 70 °F - ()
Cooling Degree Days 16    
Growing Degree Days 32 (Base 50)    
Moisture  
Dew Point 78 °F    
Average Humidity 89    
Maximum Humidity 100    
Minimum Humidity 75    
Precipitation  
Precipitation 0.00 in 0.12 in - ()
Sea Level Pressure  
Sea Level Pressure 29.85 in    
Wind  
Wind Speed 3 mph ()    
Max Wind Speed 14 mph    
Max Gust Speed -    
Visibility 4.8 miles    
Events Rain , Thunderstorm    
T = Trace of Precipitation, MM = Missing Value Source: Averaged Metar Reports

Daily Weather History Graph

Daily Weather History Graph

Search for Another Location

Airport:

Trip Planner

Search our weather history database for the weather conditions in past years. The results will help you decide how hot, cold, wet, or windy it might be!

Date:

Astronomy

Dec. 16, 2012 Rise Set
Actual Time 6:31 AM ICT 6:06 PM ICT
Civil Twilight 6:08 AM ICT 6:29 PM ICT
Nautical Twilight 5:42 AM ICT 6:56 PM ICT
Astronomical Twilight 5:15 AM ICT 7:22 PM ICT
Moon 9:08 AM ICT (12/16) 9:15 PM ICT (12/16)
Length of Visible Light 12h 21m
Length of Day
11h 35m
Waxing Crescent, 12% of the Moon is Illuminated
Dec 16
Waxing Crescent
Dec 20
First Quarter
Dec 28
Full
Jan 5
Last Quarter
Jan 12
New

Hourly Weather History & Observations

Time (ICT) Temp. Heat Index Dew Point Humidity Pressure Visibility Wind Dir Wind Speed Gust Speed Precip Events Conditions
12:00 AM 77.0 °F - 77.0 °F 100% 29.86 in 4.3 mi Calm Calm - N/A   Mostly Cloudy
1:00 AM 76 °F - 75 °F 96% 29.84 in 3 mi Calm Calm - -   Mist
6:00 AM 75.2 °F - 75.2 °F 100% 29.83 in 2.5 mi Calm Calm - N/A   Scattered Clouds
7:00 AM 76 °F - 75 °F 95% 29.85 in 4 mi Calm Calm - - Thunderstorm Thunderstorm
7:00 AM 75.2 °F - 75.2 °F 100% 29.83 in 3.1 mi Calm Calm - N/A Thunderstorm Overcast
8:00 AM 78.8 °F - 78.8 °F 100% 29.86 in 3.7 mi Calm Calm - N/A   Overcast
9:00 AM 80.6 °F 88.1 °F 78.8 °F 94% 29.89 in 5.0 mi NNE 6.9 mph - N/A   Mostly Cloudy
10:00 AM 84.2 °F 96.1 °F 78.8 °F 84% 29.89 in 6.2 mi NNE 8.1 mph - N/A   Mostly Cloudy
11:00 AM 84.2 °F 96.1 °F 78.8 °F 84% 29.89 in 6.2 mi NE 8.1 mph - N/A   Mostly Cloudy
12:00 PM 86.0 °F 99.3 °F 78.8 °F 79% 29.89 in 6.2 mi NNE 5.8 mph - N/A   Mostly Cloudy
1:00 PM 82 °F - 78 °F 83% 29.88 in 4 mi ENE 2.3 mph - - Rain , Thunderstorm Thunderstorms and Rain
1:00 PM 80.6 °F 89.3 °F 80.6 °F 100% 29.86 in 3.7 mi ENE 10.4 mph - N/A Rain Light Rain
2:00 PM 86.0 °F 99.3 °F 78.8 °F 79% 29.83 in 6.2 mi NE 10.4 mph - N/A   Overcast
3:00 PM 87.8 °F 102.5 °F 78.8 °F 75% 29.80 in 6.2 mi NE 12.7 mph - N/A   Mostly Cloudy
4:00 PM 87.8 °F 102.5 °F 78.8 °F 75% 29.80 in 6.2 mi NE 13.8 mph - N/A   Mostly Cloudy
5:00 PM 84.2 °F 96.1 °F 78.8 °F 84% 29.80 in 6.2 mi NE 10.4 mph - N/A   Scattered Clouds
6:00 PM 84.2 °F 96.1 °F 78.8 °F 84% 29.80 in 5.0 mi ENE 5.8 mph - N/A   Scattered Clouds
7:00 PM 81 °F - 77 °F 83% 29.83 in 5 mi Calm Calm - -   Mist
7:00 PM 80.6 °F 88.1 °F 78.8 °F 94% 29.83 in 4.3 mi NW 3.5 mph - N/A   Partly Cloudy